M I D A S
Marine Information and Data Acquisition System
Tripno 1779 of the Zeeleeuw from 2009-09-17 06:40:37 to 2009-09-17 13:40:42
Back to CruiseResearch ActivitiesStationsMapUnderway DataData graphs

EquipmentUnitsComments
TimeDGPSUTC
LatitudeDGPSDM.mWGS84
LongitudeDGPSDM.mWGS84
SpeedMeteo Stationm/sRelative wind speed
DirectionMeteo StationdegRelative wind direction
TemperatureMeteo Stationdeg CelciusAir temperature
PressureMeteo StationPaAtmospheric pressure
HumidityMeteo Station%Relative humidity
Missing or incorrect values are displayed as -999
Metereological data collected by the RV Zeeleeuw from 2009-09-17 06:42:19 to 2009-09-17 13:50:49
                                                                                    Next 1000 lines
Time Latitude Longitude Speed Direction Temperature Pressure Humidity
2009-09-17 06:42:29 51°13.663 2°55.952 3.5 280 14 102020 36
2009-09-17 06:42:33 51°13.664 2°55.949 5.2 242 14 102020 35
2009-09-17 06:42:38 51°13.664 2°55.946 3.9 283 14 102020 35
2009-09-17 06:42:44 51°13.665 2°55.941 3.4 25 14 102030 35
2009-09-17 06:42:50 51°13.666 2°55.935 4.4 284 14 102030 35
2009-09-17 06:42:56 51°13.668 2°55.929 2.8 246 14 102030 36
2009-09-17 06:43:01 51°13.669 2°55.923 1.7 279 14 102030 36
2009-09-17 06:43:07 51°13.671 2°55.916 0.3 239 14 102030 37
2009-09-17 06:43:12 51°13.672 2°55.91 4.9 283 14 102030 37
2009-09-17 06:43:17 51°13.674 2°55.903 2.6 260 14 102020 34
2009-09-17 06:43:22 51°13.675 2°55.896 0.8 286 14 102020 34
2009-09-17 06:43:27 51°13.677 2°55.888 0.2 33 14 102030 36
2009-09-17 06:43:32 51°13.679 2°55.881 4.6 278 14 102030 36
2009-09-17 06:43:37 51°13.681 2°55.873 2 237 14 102020 36
2009-09-17 06:43:42 51°13.683 2°55.865 0.3 287 14 102020 36
2009-09-17 06:43:47 51°13.685 2°55.857 0.3 242 14 102020 35
2009-09-17 06:43:52 51°13.688 2°55.849 0.1 281 14 102020 35
2009-09-17 06:43:57 51°13.691 2°55.842 0.1 263 14 102020 35
2009-09-17 06:44:02 51°13.694 2°55.834 0.1 282 14 102020 35
2009-09-17 06:44:07 51°13.696 2°55.826 0.1 250 14 102020 35
2009-09-17 06:44:12 51°13.698 2°55.818 0.1 277 14 102020 35
2009-09-17 06:44:17 51°13.701 2°55.811 1.9 256 14 102020 35
2009-09-17 06:44:23 51°13.704 2°55.801 2.1 285 14 102020 35
2009-09-17 06:44:27 51°13.707 2°55.795 4.3 256 14 102020 35
2009-09-17 06:44:32 51°13.71 2°55.787 4.8 284 14 102020 35
2009-09-17 06:44:37 51°13.714 2°55.779 5 264 14 102020 36
2009-09-17 06:44:42 51°13.718 2°55.771 6.6 279 14 102020 36
2009-09-17 06:44:47 51°13.722 2°55.764 7.3 253 14 102020 36
2009-09-17 06:44:52 51°13.726 2°55.756 6.6 278 14 102020 36
2009-09-17 06:44:57 51°13.731 2°55.749 5.5 258 14 102030 35
2009-09-17 06:45:02 51°13.735 2°55.741 4.9 285 14 102030 35
2009-09-17 06:45:07 51°13.74 2°55.734 4.1 262 14 102030 35
2009-09-17 06:45:12 51°13.745 2°55.727 3.8 280 14 102030 35
2009-09-17 06:45:17 51°13.749 2°55.721 3.5 264 14 102020 36
2009-09-17 06:45:22 51°13.754 2°55.716 4 285 14 102020 36
2009-09-17 06:45:27 51°13.758 2°55.711 3.5 264 14 102020 36
2009-09-17 06:45:32 51°13.761 2°55.708 5.5 285 14 102020 36
2009-09-17 06:45:37 51°13.764 2°55.705 1.5 264 14 102020 34
2009-09-17 06:45:42 51°13.767 2°55.701 0.3 276 14 102020 34
2009-09-17 06:45:47 51°13.771 2°55.698 0.1 42 14 102020 35
2009-09-17 06:45:52 51°13.774 2°55.694 0.1 283 14 102020 35
2009-09-17 06:45:57 51°13.778 2°55.69 5.6 260 14 102020 35
2009-09-17 06:46:02 51°13.782 2°55.686 2.9 284 14 102020 35
2009-09-17 06:46:07 51°13.787 2°55.681 7.1 254 14 102020 35
2009-09-17 06:46:12 51°13.791 2°55.677 5 283 14 102020 35
2009-09-17 06:46:17 51°13.796 2°55.673 3.1 261 14 102020 35
2009-09-17 06:46:22 51°13.801 2°55.668 3.6 283 14 102020 35
2009-09-17 06:46:27 51°13.806 2°55.663 4.6 33 14 102030 34
2009-09-17 06:46:32 51°13.812 2°55.659 4.3 285 14 102030 34
2009-09-17 06:46:37 51°13.817 2°55.654 3.8 268 14 102020 36
2009-09-17 06:46:43 51°13.823 2°55.648 3.2 287 14 102020 36
2009-09-17 06:46:47 51°13.828 2°55.644 4.8 258 14 102020 34
2009-09-17 06:46:52 51°13.833 2°55.639 2.8 86 14 102020 34
2009-09-17 06:46:57 51°13.839 2°55.634 3.3 266 14 102040 35
2009-09-17 06:47:03 51°13.846 2°55.628 7.1 78 14 102040 35
2009-09-17 06:47:07 51°13.85 2°55.623 5.4 26 14 102040 37
2009-09-17 06:47:12 51°13.856 2°55.619 3.6 288 14 102040 37
2009-09-17 06:47:17 51°13.862 2°55.614 4.6 267 14 102030 35
2009-09-17 06:47:22 51°13.867 2°55.611 5.8 78 14 102030 35
2009-09-17 06:47:27 51°13.873 2°55.607 6.6 273 14 102030 36
2009-09-17 06:47:32 51°13.878 2°55.604 6.2 76 14 102030 36
2009-09-17 06:47:37 51°13.884 2°55.602 7 36 14 102030 36
2009-09-17 06:47:42 51°13.889 2°55.6 5.8 82 14 102030 36
2009-09-17 06:47:47 51°13.894 2°55.599 6 270 14 102030 35
2009-09-17 06:47:52 51°13.899 2°55.598 5 284 14 102030 35
2009-09-17 06:47:57 51°13.904 2°55.597 5.9 34 14 102030 34
2009-09-17 06:48:02 51°13.909 2°55.597 6.9 75 14 102030 34
2009-09-17 06:48:07 51°13.914 2°55.598 5.1 37 14 102020 35
2009-09-17 06:48:12 51°13.918 2°55.598 6.3 78 14 102020 35
2009-09-17 06:48:17 51°13.922 2°55.599 6.7 25 14 102030 36
2009-09-17 06:48:22 51°13.926 2°55.601 5.4 76 14 102030 36
2009-09-17 06:48:27 51°13.929 2°55.602 5.5 20 14 102030 34
2009-09-17 06:48:32 51°13.933 2°55.604 4.3 75 14 102030 34
2009-09-17 06:48:37 51°13.936 2°55.605 3.7 38 14 102030 35
2009-09-17 06:48:43 51°13.939 2°55.608 2.5 82 14 102030 35
2009-09-17 06:48:47 51°13.941 2°55.609 1.5 269 14.1 102030 35
2009-09-17 06:48:52 51°13.943 2°55.61 3.9 80 14.1 102030 35
2009-09-17 06:48:57 51°13.945 2°55.612 3.7 33 14.1 102020 36
2009-09-17 06:49:02 51°13.947 2°55.613 5.5 82 14.1 102020 36
2009-09-17 06:49:07 51°13.948 2°55.613 4.2 270 14.1 102020 35
2009-09-17 06:49:12 51°13.949 2°55.613 5 80 14.1 102020 35
2009-09-17 06:49:17 51°13.949 2°55.613 4.4 38 14.1 102020 36
2009-09-17 06:49:22 51°13.95 2°55.612 3.7 79 14.1 102020 36
2009-09-17 06:49:27 51°13.949 2°55.61 4 30 14.1 102020 36
2009-09-17 06:49:32 51°13.949 2°55.608 4 81 14.1 102020 36
2009-09-17 06:49:36 51°13.949 2°55.606 3.8 38 14.1 102020 35
2009-09-17 06:49:41 51°13.949 2°55.603 4.5 80 14.1 102020 35
2009-09-17 06:49:46 51°13.949 2°55.599 3.7 31 14.1 102020 37
2009-09-17 06:49:51 51°13.948 2°55.595 5.5 81 14.1 102020 37
2009-09-17 06:49:56 51°13.949 2°55.59 3.2 32 14.1 102030 35
2009-09-17 06:50:01 51°13.949 2°55.584 3.9 44 14.1 102030 35
2009-09-17 06:50:06 51°13.95 2°55.579 5.2 32 14.1 102020 37
2009-09-17 06:50:11 51°13.951 2°55.573 4.3 38 14.1 102020 37
2009-09-17 06:50:16 51°13.953 2°55.568 5.3 27 14.1 102020 34
2009-09-17 06:50:21 51°13.955 2°55.562 3.5 30 14.1 102020 34
2009-09-17 06:50:25 51°13.957 2°55.557 4.4 3 14.1 102020 36
2009-09-17 06:50:31 51°13.96 2°55.551 3.5 16 14.1 102020 36
2009-09-17 06:50:36 51°13.964 2°55.545 4.1 13 14.1 102010 36
2009-09-17 06:50:41 51°13.968 2°55.54 2.4 18 14.1 102010 36
2009-09-17 06:50:45 51°13.972 2°55.535 4.4 1 14.1 102020 36
2009-09-17 06:50:50 51°13.978 2°55.53 5.6 9 14.1 102020 36
2009-09-17 06:50:56 51°13.986 2°55.523 3.7 4 14.1 102020 34
2009-09-17 06:51:00 51°13.992 2°55.518 4.8 3 14.1 102020 34
2009-09-17 06:51:05 51°14 2°55.511 4.7 2 14.1 102010 35
2009-09-17 06:51:10 51°14.008 2°55.503 7.2 360 14.1 102010 35
2009-09-17 06:51:15 51°14.017 2°55.495 6.8 3 14.1 102010 35
2009-09-17 06:51:20 51°14.026 2°55.487 5.8 354 14.1 102010 36
2009-09-17 06:51:25 51°14.036 2°55.479 5.2 -999 14.1 102020 35
2009-09-17 06:51:30 51°14.046 2°55.47 8.2 6 14.1 102020 35
2009-09-17 06:51:35 51°14.057 2°55.461 5.9 3 14.1 102020 35
2009-09-17 06:51:40 51°14.068 2°55.451 5.4 353 14.1 102010 35
2009-09-17 06:51:45 51°14.079 2°55.441 7.5 1 14.1 102010 35
2009-09-17 06:51:49 51°14.088 2°55.434 6 356 14.1 102010 35
2009-09-17 06:51:55 51°14.103 2°55.422 8.5 354 14.1 102010 35
2009-09-17 06:52:00 51°14.115 2°55.412 10.1 360 14.1 102010 36
2009-09-17 06:52:04 51°14.124 2°55.404 10 359 14.1 102010 36
2009-09-17 06:52:09 51°14.136 2°55.393 10.3 -999 14.1 102010 35
2009-09-17 06:52:14 51°14.148 2°55.382 7.2 -999 14.1 102010 35
2009-09-17 06:52:19 51°14.16 2°55.371 8.6 358 14.1 102010 35
2009-09-17 06:52:24 51°14.171 2°55.359 7.6 3 14.1 102010 35
2009-09-17 06:52:29 51°14.182 2°55.347 6.6 351 14.1 102000 36
2009-09-17 06:52:34 51°14.194 2°55.334 7.7 1 14.1 102000 36
2009-09-17 06:52:39 51°14.205 2°55.321 8.1 10 14.1 102000 36
2009-09-17 06:52:44 51°14.216 2°55.308 7.5 9 14.1 102000 36
2009-09-17 06:52:49 51°14.226 2°55.294 8.5 15 14.1 102000 35
2009-09-17 06:52:54 51°14.236 2°55.279 9.5 11 14.1 102010 36
2009-09-17 06:52:59 51°14.246 2°55.264 8.6 14 14.1 102010 36
2009-09-17 06:53:04 51°14.256 2°55.248 8.2 12 14.1 102010 36
2009-09-17 06:53:09 51°14.265 2°55.232 6.5 23 14.1 102010 35
2009-09-17 06:53:13 51°14.272 2°55.218 5.9 18 14.1 102010 35
2009-09-17 06:53:18 51°14.282 2°55.2 7.2 20 14.1 102000 36
2009-09-17 06:53:24 51°14.292 2°55.179 7.1 17 14.1 102000 36
2009-09-17 06:53:29 51°14.302 2°55.16 7.3 15 14.1 101990 35
2009-09-17 06:53:33 51°14.309 2°55.145 7.1 11 14.1 101990 35
2009-09-17 06:53:39 51°14.32 2°55.123 6.2 9 14 102000 35
2009-09-17 06:53:44 51°14.33 2°55.104 9.1 14 14 102000 35
2009-09-17 06:53:49 51°14.339 2°55.086 10.3 13 14 102000 35
2009-09-17 06:53:53 51°14.346 2°55.07 10 15 14 102000 35
2009-09-17 06:53:58 51°14.355 2°55.05 9.2 10 14.1 102000 35
2009-09-17 06:54:04 51°14.365 2°55.027 10.4 10 14.1 102000 35
2009-09-17 06:54:09 51°14.373 2°55.008 8.9 26 14.1 102010 36
2009-09-17 06:54:13 51°14.379 2°54.992 8.1 25 14.1 102010 36
2009-09-17 06:54:18 51°14.387 2°54.973 9.1 19 14.1 101990 36
2009-09-17 06:54:24 51°14.396 2°54.951 9.4 21 14.1 101990 36
2009-09-17 06:54:29 51°14.404 2°54.932 10 18 14.1 101990 34
2009-09-17 06:54:34 51°14.413 2°54.914 8.5 16 14.1 101990 34
2009-09-17 06:54:39 51°14.422 2°54.896 10.7 12 14.1 102000 36
2009-09-17 06:54:44 51°14.432 2°54.879 8.4 19 14.1 102000 36
2009-09-17 06:54:48 51°14.44 2°54.865 7.7 12 14.2 102000 36
2009-09-17 06:54:54 51°14.452 2°54.844 8.2 8 14.2 102000 36
2009-09-17 06:54:59 51°14.463 2°54.827 7.9 7 14.2 101990 36
2009-09-17 06:55:04 51°14.473 2°54.811 8.5 9 14.2 102000 36
2009-09-17 06:55:08 51°14.482 2°54.798 8.9 7 14.2 102000 36
2009-09-17 06:55:14 51°14.495 2°54.779 8.5 7 14.2 102000 36
2009-09-17 06:55:19 51°14.507 2°54.764 6.9 3 14.2 102000 37
2009-09-17 06:55:24 51°14.518 2°54.749 9.6 2 14.2 102000 36
2009-09-17 06:55:28 51°14.528 2°54.737 9.2 6 14.2 102000 36
2009-09-17 06:55:34 51°14.541 2°54.717 9.1 7 14.2 102000 36
2009-09-17 06:55:39 51°14.553 2°54.703 10.3 12 14.2 101990 37
2009-09-17 06:55:44 51°14.564 2°54.688 8.5 10 14.2 101990 37
2009-09-17 06:55:48 51°14.572 2°54.675 8.4 8 14.2 101990 37
2009-09-17 06:55:53 51°14.583 2°54.66 7.5 9 14.2 101990 37
2009-09-17 06:55:59 51°14.597 2°54.641 8.5 7 14.2 101990 37
2009-09-17 06:56:04 51°14.608 2°54.626 9 5 14.2 101990 36
2009-09-17 06:56:09 51°14.619 2°54.609 9.8 9 14.2 101990 36
2009-09-17 06:56:13 51°14.628 2°54.597 9.7 8 14.2 101980 36
2009-09-17 06:56:18 51°14.64 2°54.582 10.1 7 14.2 101980 36
2009-09-17 06:56:24 51°14.653 2°54.564 10.2 8 14.3 101990 37
2009-09-17 06:56:29 51°14.665 2°54.549 9 2 14.3 101990 37
2009-09-17 06:56:33 51°14.674 2°54.537 7.9 5 14.2 101980 37
2009-09-17 06:56:38 51°14.686 2°54.522 11.8 9 14.2 101980 37
2009-09-17 06:56:44 51°14.7 2°54.504 10.3 7 14.2 101980 37
2009-09-17 06:56:49 51°14.712 2°54.489 12.4 10 14.2 101990 36
2009-09-17 06:56:53 51°14.721 2°54.478 11.1 14 14.2 101990 36
2009-09-17 06:56:58 51°14.733 2°54.464 8.3 8 14.2 101990 36
2009-09-17 06:57:04 51°14.748 2°54.447 11.6 8 14.2 101990 36
2009-09-17 06:57:09 51°14.759 2°54.432 11.8 8 14.2 101990 35
2009-09-17 06:57:13 51°14.769 2°54.421 9.7 8 14.2 101990 36
2009-09-17 06:57:18 51°14.781 2°54.407 11.4 8 14.2 101990 36
2009-09-17 06:57:24 51°14.795 2°54.39 11.7 8 14.2 101990 36
2009-09-17 06:57:28 51°14.805 2°54.378 9.9 7 14.3 101990 36
2009-09-17 06:57:33 51°14.817 2°54.364 12.1 10 14.3 101990 36
2009-09-17 06:57:39 51°14.831 2°54.347 10.3 10 14.2 101980 36
2009-09-17 06:57:44 51°14.844 2°54.334 10.6 8 14.2 101980 36
2009-09-17 06:57:48 51°14.853 2°54.322 12 10 14.2 101980 36
2009-09-17 06:57:53 51°14.865 2°54.308 11.1 11 14.2 101980 36
2009-09-17 06:57:59 51°14.879 2°54.292 9 6 14.2 101990 36
2009-09-17 06:58:04 51°14.892 2°54.279 10.9 7 14.3 101990 36
2009-09-17 06:58:08 51°14.901 2°54.268 11.5 6 14.3 101990 36
2009-09-17 06:58:13 51°14.913 2°54.254 10.3 8 14.3 101990 36
2009-09-17 06:58:18 51°14.924 2°54.24 11.2 6 14.3 101990 36
2009-09-17 06:58:24 51°14.938 2°54.223 12.1 7 14.3 101980 36
2009-09-17 06:58:29 51°14.951 2°54.212 9.4 8 14.3 101980 36
2009-09-17 06:58:33 51°14.96 2°54.201 12.4 10 14.3 101980 36
2009-09-17 06:58:38 51°14.973 2°54.19 11 6 14.3 101990 37
2009-09-17 06:58:44 51°14.987 2°54.175 11.2 8 14.3 101990 36
2009-09-17 06:58:49 51°14.999 2°54.163 9.3 6 14.3 101990 36
2009-09-17 06:58:53 51°15.009 2°54.154 9.7 7 14.3 101990 36
2009-09-17 06:58:58 51°15.021 2°54.142 9.6 6 14.4 101990 37
2009-09-17 06:59:04 51°15.036 2°54.128 8.3 6 14.4 101990 37
2009-09-17 06:59:09 51°15.048 2°54.116 9.3 7 14.3 101990 36
2009-09-17 06:59:13 51°15.057 2°54.107 10.7 6 14.4 101980 37
2009-09-17 06:59:18 51°15.069 2°54.095 10.7 3 14.4 101980 37
2009-09-17 06:59:24 51°15.084 2°54.081 11.5 3 14.4 101980 37
2009-09-17 06:59:29 51°15.096 2°54.07 10.9 4 14.4 101970 37
2009-09-17 06:59:33 51°15.105 2°54.062 10.7 4 14.4 102000 37
2009-09-17 06:59:38 51°15.117 2°54.051 10.3 5 14.4 102000 37
2009-09-17 06:59:44 51°15.131 2°54.038 11 2 14.4 102000 37
2009-09-17 06:59:49 51°15.143 2°54.027 10.5 3 14.4 101970 36
2009-09-17 06:59:53 51°15.152 2°54.018 11.6 2 14.5 102000 37
2009-09-17 06:59:58 51°15.164 2°54.008 13.1 1 14.5 102000 37
2009-09-17 07:00:04 51°15.178 2°53.994 12.7 2 14.5 102000 37
2009-09-17 07:00:09 51°15.19 2°53.983 11.9 3 14.5 101980 37
2009-09-17 07:00:13 51°15.199 2°53.973 9 6 14.5 101980 37
2009-09-17 07:00:18 51°15.212 2°53.963 12 4 14.5 101970 37
2009-09-17 07:00:24 51°15.226 2°53.95 10.4 1 14.5 101970 37
2009-09-17 07:00:29 51°15.239 2°53.94 11.4 6 14.4 101990 37
2009-09-17 07:00:33 51°15.248 2°53.931 10.8 4 14.4 101990 37
2009-09-17 07:00:38 51°15.261 2°53.92 12.3 3 14.4 101970 37
2009-09-17 07:00:44 51°15.276 2°53.907 12.6 2 14.4 101970 37
2009-09-17 07:00:49 51°15.288 2°53.895 11.6 7 14.4 101980 37
2009-09-17 07:00:54 51°15.301 2°53.885 10.5 6 14.4 101980 37
2009-09-17 07:00:58 51°15.311 2°53.875 11.7 3 14.5 101980 37
2009-09-17 07:01:04 51°15.326 2°53.861 11.2 7 14.5 101990 38
2009-09-17 07:01:09 51°15.338 2°53.85 10.3 3 14.5 101990 38
2009-09-17 07:01:14 51°15.351 2°53.838 12 2 14.5 101990 38
2009-09-17 07:01:18 51°15.36 2°53.829 11.1 4 14.5 101980 37
2009-09-17 07:01:24 51°15.375 2°53.815 9.4 6 14.5 101980 37
2009-09-17 07:01:29 51°15.387 2°53.803 11 6 14.5 101990 37
2009-09-17 07:01:34 51°15.399 2°53.791 11.1 6 14.5 101990 37
2009-09-17 07:01:38 51°15.408 2°53.781 9.3 5 14.5 101980 38
2009-09-17 07:01:44 51°15.423 2°53.767 10.1 3 14.5 101980 38
2009-09-17 07:01:48 51°15.433 2°53.757 12 7 14.5 101980 37
2009-09-17 07:01:54 51°15.448 2°53.743 11.1 7 14.5 101980 37
2009-09-17 07:01:59 51°15.46 2°53.731 8.3 6 14.4 101970 36
2009-09-17 07:02:04 51°15.473 2°53.718 12.9 8 14.4 101970 36
2009-09-17 07:02:08 51°15.483 2°53.709 9.5 7 14.4 101980 36
2009-09-17 07:02:13 51°15.495 2°53.696 11.8 6 14.4 101980 36
2009-09-17 07:02:19 51°15.51 2°53.682 8.3 5 14.4 101980 36
2009-09-17 07:02:24 51°15.522 2°53.67 10 3 14.4 101980 36
2009-09-17 07:02:29 51°15.535 2°53.658 10 3 14.4 101980 36
2009-09-17 07:02:33 51°15.545 2°53.648 12 4 14.4 101980 36
2009-09-17 07:02:39 51°15.559 2°53.633 12.4 3 14.4 101970 37
2009-09-17 07:02:44 51°15.571 2°53.621 12 2 14.5 101970 37
2009-09-17 07:02:49 51°15.584 2°53.61 14.1 4 14.5 101970 37
2009-09-17 07:02:53 51°15.593 2°53.6 13.5 4 14.5 101970 37
2009-09-17 07:02:59 51°15.608 2°53.585 11.2 6 14.5 102000 38
2009-09-17 07:03:04 51°15.62 2°53.573 9.6 6 14.5 101970 37
2009-09-17 07:03:09 51°15.633 2°53.561 11.5 6 14.5 101970 37
2009-09-17 07:03:13 51°15.642 2°53.552 13.7 8 14.5 101970 37
2009-09-17 07:03:18 51°15.654 2°53.54 11 7 14.5 101970 37
2009-09-17 07:03:24 51°15.669 2°53.526 13.3 10 14.5 101970 37
2009-09-17 07:03:29 51°15.682 2°53.513 12.4 8 14.4 101980 37
2009-09-17 07:03:33 51°15.691 2°53.503 9 6 14.5 101980 36
2009-09-17 07:03:38 51°15.704 2°53.49 9.6 4 14.5 101980 36
2009-09-17 07:03:44 51°15.718 2°53.475 10 8 14.5 101980 36
2009-09-17 07:03:49 51°15.731 2°53.461 12.3 4 14.4 101970 36
2009-09-17 07:03:54 51°15.743 2°53.448 12.6 5 14.4 101970 36
2009-09-17 07:03:59 51°15.755 2°53.436 13.3 4 14.5 101980 37
2009-09-17 07:04:04 51°15.768 2°53.425 14.2 6 14.5 101990 37
2009-09-17 07:04:09 51°15.78 2°53.413 9.9 3 14.5 101990 37
2009-09-17 07:04:14 51°15.793 2°53.402 12.8 7 14.5 101990 37
2009-09-17 07:04:19 51°15.805 2°53.391 11.6 1 14.5 101980 37
2009-09-17 07:04:24 51°15.818 2°53.382 13.7 4 14.5 101980 36
2009-09-17 07:04:28 51°15.828 2°53.374 11.3 4 14.5 101980 36
2009-09-17 07:04:33 51°15.842 2°53.365 14.7 4 14.5 101980 36
2009-09-17 07:04:39 51°15.857 2°53.354 14.8 7 14.5 101980 37
2009-09-17 07:04:44 51°15.87 2°53.344 12.1 7 14.5 101980 37
2009-09-17 07:04:48 51°15.881 2°53.337 12.8 6 14.5 101980 37
2009-09-17 07:04:53 51°15.894 2°53.328 11.9 5 14.5 101980 37
2009-09-17 07:04:59 51°15.909 2°53.318 10.3 4 14.5 101960 36
2009-09-17 07:05:04 51°15.923 2°53.31 12.7 5 14.5 101960 36
2009-09-17 07:05:08 51°15.933 2°53.304 11.8 4 14.5 101960 36
2009-09-17 07:05:13 51°15.946 2°53.295 13.7 4 14.5 101970 37
2009-09-17 07:05:18 51°15.959 2°53.288 11.4 5 14.5 101970 37
2009-09-17 07:05:24 51°15.975 2°53.277 11.6 2 14.5 101960 37
2009-09-17 07:05:29 51°15.988 2°53.269 13 2 14.5 101960 37
2009-09-17 07:05:33 51°15.998 2°53.261 11.4 2 14.4 101980 36
2009-09-17 07:05:38 51°16.011 2°53.252 10.8 3 14.4 101980 36
2009-09-17 07:05:44 51°16.026 2°53.241 10.1 3 14.4 101980 36
2009-09-17 07:05:49 51°16.039 2°53.232 11.7 4 14.5 101970 36
2009-09-17 07:05:53 51°16.049 2°53.225 13 4 14.4 101980 37
2009-09-17 07:05:58 51°16.062 2°53.215 12.7 5 14.4 101980 37
2009-09-17 07:06:04 51°16.077 2°53.205 12.5 4 14.4 101980 37
2009-09-17 07:06:09 51°16.09 2°53.195 12.1 5 14.5 101990 37
2009-09-17 07:06:13 51°16.101 2°53.187 12.3 3 14.5 101970 37
2009-09-17 07:06:18 51°16.113 2°53.178 11.8 3 14.5 101970 37
2009-09-17 07:06:24 51°16.128 2°53.166 11.1 4 14.5 101970 37
2009-09-17 07:06:28 51°16.138 2°53.159 11.3 4 14.5 101970 36
2009-09-17 07:06:33 51°16.15 2°53.15 12.2 2 14.5 101970 36
2009-09-17 07:06:38 51°16.163 2°53.14 13.4 4 14.5 101970 36
2009-09-17 07:06:44 51°16.177 2°53.129 11.4 2 14.5 101970 36
2009-09-17 07:06:49 51°16.19 2°53.12 12.3 5 14.4 101970 36
2009-09-17 07:06:53 51°16.2 2°53.113 11.7 7 14.4 101970 36
2009-09-17 07:06:59 51°16.214 2°53.103 10.7 5 14.4 101980 36
2009-09-17 07:07:04 51°16.227 2°53.094 9.3 6 14.4 101980 36
2009-09-17 07:07:09 51°16.239 2°53.085 11.4 3 14.4 101990 36
2009-09-17 07:07:13 51°16.249 2°53.079 10.1 6 14.4 101990 36
2009-09-17 07:07:19 51°16.264 2°53.068 10.1 3 14.4 101990 36
2009-09-17 07:07:24 51°16.277 2°53.06 10.8 4 14.4 101990 36
2009-09-17 07:07:29 51°16.29 2°53.051 12.6 7 14.5 101960 36
2009-09-17 07:07:33 51°16.3 2°53.043 12.8 6 14.5 101960 36
2009-09-17 07:07:38 51°16.313 2°53.034 11 6 14.5 101970 37
2009-09-17 07:07:44 51°16.329 2°53.023 10.4 9 14.5 101970 36
2009-09-17 07:07:49 51°16.341 2°53.013 12.9 8 14.5 101970 36
2009-09-17 07:07:53 51°16.351 2°53.007 12.6 6 14.5 101980 36
2009-09-17 07:07:58 51°16.364 2°52.997 12.6 8 14.5 101980 36
2009-09-17 07:08:04 51°16.379 2°52.988 10.8 8 14.5 101980 36
2009-09-17 07:08:09 51°16.391 2°52.979 9.5 4 14.5 101970 37
2009-09-17 07:08:13 51°16.402 2°52.972 11.1 7 14.4 101970 36
2009-09-17 07:08:18 51°16.414 2°52.962 9.3 6 14.4 101970 36
2009-09-17 07:08:24 51°16.43 2°52.951 10.3 7 14.4 101970 36
2009-09-17 07:08:29 51°16.442 2°52.942 10.9 7 14.5 101970 36
2009-09-17 07:08:33 51°16.453 2°52.935 12.3 3 14.5 101970 37
2009-09-17 07:08:38 51°16.466 2°52.926 11.9 -999 14.5 101970 37
2009-09-17 07:08:44 51°16.481 2°52.915 13 2 14.5 101970 37
2009-09-17 07:08:49 51°16.494 2°52.907 10.5 3 14.6 101970 37
2009-09-17 07:08:53 51°16.504 2°52.899 11.9 6 14.6 101980 37
2009-09-17 07:08:58 51°16.518 2°52.891 10.5 3 14.6 101980 37
2009-09-17 07:09:04 51°16.532 2°52.88 10.9 3 14.6 101980 37
2009-09-17 07:09:09 51°16.545 2°52.872 14 6 14.6 101980 37
2009-09-17 07:09:13 51°16.555 2°52.865 9.9 4 14.5 101980 36
2009-09-17 07:09:18 51°16.568 2°52.857 12.5 7 14.5 101980 36
2009-09-17 07:09:24 51°16.584 2°52.847 10.6 6 14.5 101980 36
2009-09-17 07:09:29 51°16.596 2°52.839 8.8 5 14.5 101960 37
2009-09-17 07:09:33 51°16.606 2°52.832 9.8 4 14.5 101960 37
2009-09-17 07:09:38 51°16.619 2°52.824 11 8 14.5 101970 37
2009-09-17 07:09:44 51°16.634 2°52.813 15.4 9 14.5 101970 37
2009-09-17 07:09:49 51°16.647 2°52.805 9.6 6 14.5 101980 36
2009-09-17 07:09:54 51°16.66 2°52.797 9.6 7 14.5 101980 36
2009-09-17 07:09:59 51°16.673 2°52.789 10.3 6 14.5 101970 36
2009-09-17 07:10:04 51°16.686 2°52.781 10.9 5 14.5 101980 37
2009-09-17 07:10:09 51°16.698 2°52.772 12 3 14.5 101980 37
2009-09-17 07:10:14 51°16.71 2°52.763 12.5 3 14.6 101990 37
2009-09-17 07:10:19 51°16.722 2°52.754 13.2 4 14.6 101990 37
2009-09-17 07:10:24 51°16.735 2°52.746 14 6 14.6 101990 36
2009-09-17 07:10:29 51°16.747 2°52.737 13.1 1 14.6 101990 36
2009-09-17 07:10:33 51°16.757 2°52.731 11 2 14.7 101970 37
2009-09-17 07:10:38 51°16.77 2°52.722 12.2 8 14.7 101970 37
2009-09-17 07:10:44 51°16.785 2°52.713 11.2 4 14.7 101970 37
2009-09-17 07:10:49 51°16.797 2°52.704 13 6 14.6 101970 37
2009-09-17 07:10:54 51°16.808 2°52.697 11.4 5 14.6 101970 37
2009-09-17 07:10:59 51°16.82 2°52.689 11 5 14.6 101970 37
2009-09-17 07:11:04 51°16.832 2°52.682 10.4 -999 14.6 101970 37
2009-09-17 07:11:09 51°16.844 2°52.673 12.4 6 14.6 101970 37
2009-09-17 07:11:14 51°16.856 2°52.666 12.9 5 14.6 102010 37
2009-09-17 07:11:19 51°16.868 2°52.658 10.8 5 14.6 102010 37
2009-09-17 07:11:24 51°16.88 2°52.65 11.5 5 14.6 102010 37
2009-09-17 07:11:29 51°16.893 2°52.641 11.9 6 14.7 101980 37
2009-09-17 07:11:33 51°16.903 2°52.635 11.1 4 14.6 101990 37
2009-09-17 07:11:39 51°16.918 2°52.625 12.4 2 14.6 101990 37
2009-09-17 07:11:44 51°16.93 2°52.617 10.9 2 14.6 101980 38
2009-09-17 07:11:49 51°16.943 2°52.609 11.9 4 14.6 101980 38
2009-09-17 07:11:53 51°16.953 2°52.602 14.9 2 14.6 101980 38
2009-09-17 07:11:59 51°16.968 2°52.592 12 5 14.7 101990 38
2009-09-17 07:12:04 51°16.98 2°52.584 9.7 6 14.7 101980 38
2009-09-17 07:12:09 51°16.993 2°52.575 9.6 3 14.7 101980 38
2009-09-17 07:12:13 51°17.003 2°52.569 11.1 6 14.7 101980 38
2009-09-17 07:12:18 51°17.016 2°52.561 12.5 360 14.7 101980 37
2009-09-17 07:12:24 51°17.031 2°52.551 13.2 2 14.6 101980 37
2009-09-17 07:12:29 51°17.043 2°52.544 12.2 4 14.6 101980 37
2009-09-17 07:12:33 51°17.054 2°52.538 14 2 14.6 101970 38
2009-09-17 07:12:38 51°17.067 2°52.531 13.7 1 14.6 101970 38
2009-09-17 07:12:44 51°17.082 2°52.522 14.1 2 14.6 101970 38
2009-09-17 07:12:49 51°17.095 2°52.515 11.4 4 14.6 101980 38
2009-09-17 07:12:54 51°17.108 2°52.508 13.4 3 14.6 101980 38
2009-09-17 07:12:59 51°17.12 2°52.502 12.2 360 14.6 101980 37
2009-09-17 07:13:04 51°17.133 2°52.497 11.8 2 14.6 101970 36
2009-09-17 07:13:08 51°17.143 2°52.492 12.7 1 14.6 101970 36
2009-09-17 07:13:14 51°17.159 2°52.487 13.1 -999 14.6 101970 36
2009-09-17 07:13:19 51°17.171 2°52.483 14.5 360 14.5 101970 37
2009-09-17 07:13:24 51°17.184 2°52.479 14.1 359 14.5 101970 37
2009-09-17 07:13:28 51°17.195 2°52.476 12.6 359 14.5 101970 37
2009-09-17 07:13:34 51°17.211 2°52.472 13.3 355 14.5 101970 37
2009-09-17 07:13:39 51°17.224 2°52.469 14.6 359 14.6 101980 38
2009-09-17 07:13:44 51°17.237 2°52.466 12.8 358 14.6 101970 37
2009-09-17 07:13:48 51°17.247 2°52.464 12.7 359 14.6 101970 37
2009-09-17 07:13:53 51°17.261 2°52.462 13.4 357 14.6 101970 37
2009-09-17 07:13:59 51°17.276 2°52.46 16.1 355 14.6 101990 37
2009-09-17 07:14:04 51°17.289 2°52.46 13.4 356 14.6 101960 37
2009-09-17 07:14:08 51°17.3 2°52.459 13.4 356 14.6 101960 37
2009-09-17 07:14:13 51°17.313 2°52.459 13.3 355 14.6 101970 37
2009-09-17 07:14:19 51°17.329 2°52.459 13.9 354 14.6 101970 37
2009-09-17 07:14:24 51°17.342 2°52.458 16.8 351 14.6 101970 37
2009-09-17 07:14:29 51°17.355 2°52.458 15.5 356 14.6 101970 37
2009-09-17 07:14:33 51°17.365 2°52.458 14.1 358 14.6 101970 36
2009-09-17 07:14:38 51°17.378 2°52.459 13.7 358 14.6 101970 36
2009-09-17 07:14:44 51°17.394 2°52.458 16.2 -999 14.6 101980 37
2009-09-17 07:14:49 51°17.407 2°52.458 14.1 356 14.6 101980 37
2009-09-17 07:14:53 51°17.417 2°52.459 14.8 356 14.6 101970 37
2009-09-17 07:14:58 51°17.43 2°52.459 15.2 357 14.6 101970 37
2009-09-17 07:15:04 51°17.446 2°52.459 14.8 357 14.6 101970 37
2009-09-17 07:15:09 51°17.459 2°52.459 16.7 356 14.6 101970 37
2009-09-17 07:15:13 51°17.469 2°52.459 13.5 357 14.6 101980 37
2009-09-17 07:15:18 51°17.482 2°52.459 12.9 356 14.6 101980 37
2009-09-17 07:15:24 51°17.498 2°52.458 12.7 353 14.6 101980 37
2009-09-17 07:15:28 51°17.508 2°52.458 16.4 353 14.6 101980 37
2009-09-17 07:15:33 51°17.521 2°52.458 16.1 353 14.5 101960 36
2009-09-17 07:15:38 51°17.534 2°52.458 15.2 352 14.5 101960 36
2009-09-17 07:15:44 51°17.55 2°52.458 16.2 356 14.5 101960 36
2009-09-17 07:15:49 51°17.562 2°52.458 16.9 353 14.6 101990 36
2009-09-17 07:15:54 51°17.575 2°52.457 17.4 355 14.6 101970 36
2009-09-17 07:15:59 51°17.588 2°52.457 16.7 356 14.6 101970 36
2009-09-17 07:16:04 51°17.601 2°52.456 15.8 356 14.5 101970 36
2009-09-17 07:16:09 51°17.614 2°52.456 15.6 356 14.5 101970 36
2009-09-17 07:16:13 51°17.625 2°52.456 15.1 355 14.5 101970 36
2009-09-17 07:16:19 51°17.64 2°52.457 16.5 356 14.5 101970 36
2009-09-17 07:16:24 51°17.653 2°52.456 15.1 358 14.5 101970 36
2009-09-17 07:16:29 51°17.666 2°52.458 15.9 353 14.5 101970 36
2009-09-17 07:16:33 51°17.676 2°52.459 17.9 350 14.5 101970 36
2009-09-17 07:16:38 51°17.688 2°52.46 15.2 354 14.5 101970 36
2009-09-17 07:16:44 51°17.704 2°52.462 15.6 351 14.5 101970 36
2009-09-17 07:16:49 51°17.716 2°52.463 15.4 352 14.5 101970 36
2009-09-17 07:16:53 51°17.726 2°52.464 16 352 14.5 101970 36
2009-09-17 07:16:58 51°17.738 2°52.466 13.9 352 14.6 101950 36
2009-09-17 07:17:04 51°17.754 2°52.467 13.7 352 14.5 101970 36
2009-09-17 07:17:09 51°17.766 2°52.468 14.9 352 14.5 101970 36
2009-09-17 07:17:13 51°17.777 2°52.47 15.4 353 14.5 101980 36
2009-09-17 07:17:18 51°17.789 2°52.47 14.9 352 14.5 101980 36
2009-09-17 07:17:24 51°17.805 2°52.473 16.3 351 14.5 101980 36
2009-09-17 07:17:29 51°17.817 2°52.473 16.3 353 14.5 101960 36
2009-09-17 07:17:33 51°17.828 2°52.475 17.2 353 14.5 101970 36
2009-09-17 07:17:38 51°17.84 2°52.475 15.8 356 14.5 101970 36
2009-09-17 07:17:44 51°17.855 2°52.478 14.6 356 14.5 101970 36
2009-09-17 07:17:49 51°17.868 2°52.478 17.4 355 14.5 101970 36
2009-09-17 07:17:53 51°17.878 2°52.48 15 355 14.5 101970 36
2009-09-17 07:17:58 51°17.89 2°52.482 16.9 355 14.5 101970 36
2009-09-17 07:18:04 51°17.905 2°52.486 16.4 356 14.5 101970 36
2009-09-17 07:18:09 51°17.917 2°52.487 14.8 355 14.5 101980 36
2009-09-17 07:18:13 51°17.927 2°52.49 15.8 357 14.5 101960 36
2009-09-17 07:18:18 51°17.939 2°52.492 12.3 358 14.5 101960 36
2009-09-17 07:18:24 51°17.953 2°52.496 14.3 355 14.5 101960 36
2009-09-17 07:18:29 51°17.965 2°52.498 12.9 354 14.5 101960 35
2009-09-17 07:18:34 51°17.977 2°52.501 14.4 354 14.5 101960 35
2009-09-17 07:18:39 51°17.989 2°52.504 14.1 352 14.5 101970 37
2009-09-17 07:18:44 51°18.001 2°52.506 17.2 352 14.6 101980 37
2009-09-17 07:18:49 51°18.012 2°52.509 15.1 348 14.6 101980 37
2009-09-17 07:18:53 51°18.022 2°52.513 15.6 349 14.6 101980 37
2009-09-17 07:18:58 51°18.033 2°52.518 16.6 282 14.6 101970 37
2009-09-17 07:19:04 51°18.047 2°52.525 15.1 347 14.6 101980 36
2009-09-17 07:19:09 51°18.058 2°52.532 17.2 282 14.6 101980 36
2009-09-17 07:19:13 51°18.066 2°52.539 15 346 14.6 101980 37
2009-09-17 07:19:18 51°18.077 2°52.547 17.7 349 14.6 101980 37
2009-09-17 07:19:24 51°18.089 2°52.56 15 346 14.5 101980 36
2009-09-17 07:19:29 51°18.099 2°52.569 14.8 284 14.5 101980 36
2009-09-17 07:19:34 51°18.109 2°52.58 15.2 347 14.5 101980 36
2009-09-17 07:19:39 51°18.119 2°52.59 16.4 280 14.5 101970 36
2009-09-17 07:19:44 51°18.128 2°52.602 14.9 341 14.5 101970 36
2009-09-17 07:19:49 51°18.136 2°52.616 15.7 280 14.5 101960 36
2009-09-17 07:19:54 51°18.144 2°52.63 13.6 338 14.5 101960 36
2009-09-17 07:19:59 51°18.152 2°52.645 16.6 280 14.5 101970 36
2009-09-17 07:20:04 51°18.159 2°52.66 16.5 339 14.5 101970 36
2009-09-17 07:20:08 51°18.165 2°52.672 15.1 284 14.5 101970 36
2009-09-17 07:20:14 51°18.174 2°52.691 17.2 341 14.5 101970 36
2009-09-17 07:20:19 51°18.18 2°52.707 16.9 279 14.6 101990 37
2009-09-17 07:20:24 51°18.187 2°52.724 17.2 338 14.6 101990 37
2009-09-17 07:20:28 51°18.193 2°52.737 14.9 281 14.6 101990 37
2009-09-17 07:20:33 51°18.199 2°52.754 16.9 339 14.6 101990 37
2009-09-17 07:20:39 51°18.207 2°52.774 17.6 283 14.6 101970 36
2009-09-17 07:20:44 51°18.213 2°52.791 14.8 335 14.6 101980 36
2009-09-17 07:20:48 51°18.219 2°52.805 16.1 284 14.6 101980 36
2009-09-17 07:20:53 51°18.225 2°52.823 17.1 337 14.6 101980 37
2009-09-17 07:20:59 51°18.232 2°52.842 18.6 284 14.6 101980 37
2009-09-17 07:21:04 51°18.238 2°52.86 16.2 337 14.7 101980 36
2009-09-17 07:21:08 51°18.243 2°52.873 16.7 283 14.7 101980 36
2009-09-17 07:21:13 51°18.249 2°52.891 16.4 336 14.6 101980 36
2009-09-17 07:21:18 51°18.256 2°52.908 14.5 284 14.6 101980 36
2009-09-17 07:21:24 51°18.263 2°52.929 14.7 335 14.6 101970 36
2009-09-17 07:21:29 51°18.27 2°52.945 16.5 280 14.6 101970 36
2009-09-17 07:21:33 51°18.274 2°52.959 13.2 337 14.6 101980 36
2009-09-17 07:21:38 51°18.282 2°52.975 13.8 284 14.6 101980 36
2009-09-17 07:21:44 51°18.289 2°52.996 16.4 337 14.6 101980 36
2009-09-17 07:21:49 51°18.296 2°53.013 15.3 283 14.6 101990 37
2009-09-17 07:21:53 51°18.301 2°53.027 17.1 335 14.7 101990 36
2009-09-17 07:21:58 51°18.308 2°53.044 16.1 283 14.7 101990 36
2009-09-17 07:22:04 51°18.316 2°53.064 16.4 336 14.7 101990 36
2009-09-17 07:22:09 51°18.323 2°53.081 15.5 282 14.7 101990 37
2009-09-17 07:22:13 51°18.328 2°53.096 16 337 14.7 101980 37
2009-09-17 07:22:18 51°18.335 2°53.112 14.3 280 14.7 101980 37
2009-09-17 07:22:24 51°18.343 2°53.133 14.9 337 14.7 101980 37
2009-09-17 07:22:29 51°18.35 2°53.15 14.5 283 14.7 101980 36
2009-09-17 07:22:33 51°18.355 2°53.164 15.6 337 14.7 101990 36
2009-09-17 07:22:38 51°18.362 2°53.181 14.7 284 14.7 101990 36
2009-09-17 07:22:44 51°18.371 2°53.201 14.2 338 14.7 101990 36
2009-09-17 07:22:49 51°18.378 2°53.218 13.9 282 14.6 101990 36
2009-09-17 07:22:53 51°18.383 2°53.231 14.2 335 14.6 101990 36
2009-09-17 07:22:59 51°18.391 2°53.252 13.9 281 14.6 101980 36
2009-09-17 07:23:04 51°18.398 2°53.268 14.4 334 14.6 101990 36
2009-09-17 07:23:09 51°18.405 2°53.286 14.4 336 14.6 101990 36
2009-09-17 07:23:13 51°18.41 2°53.3 15 339 14.6 101990 36
2009-09-17 07:23:19 51°18.418 2°53.32 16.1 285 14.7 101990 36
2009-09-17 07:23:24 51°18.425 2°53.338 14.6 336 14.7 101990 37
2009-09-17 07:23:29 51°18.432 2°53.355 13.6 286 14.7 101990 37
2009-09-17 07:23:33 51°18.437 2°53.368 15.1 334 14.7 101990 37
2009-09-17 07:23:38 51°18.444 2°53.386 15.6 280 14.8 101990 38
2009-09-17 07:23:44 51°18.451 2°53.407 16.4 336 14.8 101980 36
2009-09-17 07:23:49 51°18.458 2°53.425 15.1 284 14.8 101980 36
2009-09-17 07:23:53 51°18.462 2°53.44 14.5 337 14.8 101990 38
2009-09-17 07:23:58 51°18.469 2°53.457 15.7 283 14.8 101990 38
2009-09-17 07:24:04 51°18.476 2°53.478 15.5 334 14.8 101990 37
2009-09-17 07:24:09 51°18.483 2°53.496 13.8 282 14.8 101990 37
2009-09-17 07:24:13 51°18.488 2°53.509 14.5 336 14.7 102000 36
2009-09-17 07:24:18 51°18.495 2°53.526 15.2 284 14.7 102000 36
2009-09-17 07:24:24 51°18.503 2°53.547 15.9 333 14.7 102000 36
2009-09-17 07:24:29 51°18.509 2°53.565 15.2 278 14.7 101990 36
2009-09-17 07:24:33 51°18.514 2°53.579 16 334 14.7 101990 36
2009-09-17 07:24:38 51°18.521 2°53.596 15.5 282 14.7 101990 36
2009-09-17 07:24:44 51°18.528 2°53.617 15.5 339 14.7 101990 36
2009-09-17 07:24:49 51°18.535 2°53.634 14.6 279 14.7 101990 36
2009-09-17 07:24:53 51°18.541 2°53.648 17.9 337 14.7 102000 36
2009-09-17 07:24:58 51°18.547 2°53.665 16.1 280 14.7 102000 36
2009-09-17 07:25:04 51°18.555 2°53.687 17.6 338 14.7 102000 36
2009-09-17 07:25:09 51°18.562 2°53.703 16.5 337 14.7 101990 37
2009-09-17 07:25:13 51°18.567 2°53.718 15.2 336 14.7 101990 37
2009-09-17 07:25:19 51°18.574 2°53.738 18 280 14.7 101990 37
2009-09-17 07:25:24 51°18.582 2°53.754 15.1 339 14.7 101990 37
2009-09-17 07:25:29 51°18.588 2°53.772 15.1 284 14.7 101990 36
2009-09-17 07:25:33 51°18.593 2°53.786 16.8 338 14.7 101990 36
2009-09-17 07:25:39 51°18.6 2°53.807 14.3 283 14.7 102000 36
2009-09-17 07:25:44 51°18.606 2°53.824 13.2 338 14.7 102000 36
2009-09-17 07:25:49 51°18.612 2°53.841 14.9 284 14.7 101980 36
2009-09-17 07:25:54 51°18.618 2°53.859 15.3 338 14.7 101980 36
2009-09-17 07:25:58 51°18.623 2°53.874 14.9 283 14.6 101990 35
2009-09-17 07:26:04 51°18.63 2°53.895 15.6 337 14.7 101990 36
2009-09-17 07:26:09 51°18.636 2°53.913 16.7 286 14.7 101990 36
2009-09-17 07:26:14 51°18.642 2°53.93 15.2 335 14.7 101990 36
2009-09-17 07:26:19 51°18.647 2°53.949 15.2 279 14.6 102000 36
2009-09-17 07:26:24 51°18.653 2°53.967 17.5 334 14.6 102000 36
2009-09-17 07:26:29 51°18.657 2°53.986 17.7 283 14.6 101990 35
2009-09-17 07:26:34 51°18.663 2°54.004 19.2 339 14.6 101990 35
2009-09-17 07:26:39 51°18.667 2°54.024 16.7 280 14.7 102000 36
2009-09-17 07:26:44 51°18.672 2°54.042 16.2 336 14.6 102000 36
2009-09-17 07:26:48 51°18.676 2°54.058 16.2 281 14.6 102000 36
2009-09-17 07:26:54 51°18.681 2°54.081 14.6 334 14.6 102000 36
2009-09-17 07:26:59 51°18.686 2°54.1 15.7 281 14.6 101990 36
2009-09-17 07:27:04 51°18.691 2°54.119 16.8 333 14.6 101990 36
2009-09-17 07:27:08 51°18.694 2°54.134 16.8 280 14.6 101990 36
2009-09-17 07:27:13 51°18.698 2°54.154 14.9 333 14.7 102010 36
2009-09-17 07:27:19 51°18.704 2°54.177 17.5 279 14.7 102010 36
2009-09-17 07:27:24 51°18.708 2°54.197 16.4 334 14.6 102000 36
2009-09-17 07:27:29 51°18.714 2°54.216 14.9 281 14.6 102000 36
2009-09-17 07:27:34 51°18.717 2°54.236 15.3 334 14.6 102000 36
2009-09-17 07:27:39 51°18.721 2°54.255 13.9 278 14.6 102000 36
2009-09-17 07:27:44 51°18.726 2°54.274 14.1 334 14.6 101990 36
2009-09-17 07:27:49 51°18.73 2°54.293 15.7 284 14.6 101990 36
2009-09-17 07:27:53 51°18.734 2°54.309 16.7 334 14.6 102000 36
2009-09-17 07:27:58 51°18.738 2°54.328 16.9 281 14.6 102000 36
2009-09-17 07:28:04 51°18.743 2°54.351 15.4 332 14.7 102010 37
2009-09-17 07:28:09 51°18.748 2°54.369 15.5 284 14.7 102010 37
2009-09-17 07:28:13 51°18.751 2°54.385 15.4 332 14.6 101990 36
2009-09-17 07:28:18 51°18.756 2°54.404 16.6 279 14.6 101990 36
2009-09-17 07:28:24 51°18.761 2°54.427 15.2 333 14.6 102010 36
2009-09-17 07:28:29 51°18.766 2°54.446 15.9 284 14.6 102010 36
2009-09-17 07:28:33 51°18.769 2°54.462 17.9 332 14.6 102010 36
2009-09-17 07:28:38 51°18.774 2°54.48 16 281 14.6 102010 36
2009-09-17 07:28:44 51°18.779 2°54.503 16.3 332 14.6 102010 36
2009-09-17 07:28:49 51°18.784 2°54.522 15.7 283 14.6 102010 36
2009-09-17 07:28:54 51°18.789 2°54.541 15.6 330 14.6 102010 36
2009-09-17 07:28:59 51°18.792 2°54.561 16.8 279 14.6 102000 36
2009-09-17 07:29:04 51°18.798 2°54.58 17.9 333 14.6 102000 35
2009-09-17 07:29:09 51°18.802 2°54.6 16.4 280 14.6 102000 35
2009-09-17 07:29:14 51°18.806 2°54.619 16.6 333 14.6 102000 36
2009-09-17 07:29:19 51°18.811 2°54.638 14.5 282 14.6 102000 36
2009-09-17 07:29:24 51°18.815 2°54.658 16.2 331 14.7 102000 36
2009-09-17 07:29:28 51°18.818 2°54.673 14.7 280 14.7 102000 36
2009-09-17 07:29:34 51°18.824 2°54.696 13.5 331 14.6 102000 36
2009-09-17 07:29:39 51°18.828 2°54.716 14.8 281 14.6 102000 36
2009-09-17 07:29:44 51°18.833 2°54.735 14.7 331 14.7 102010 36
2009-09-17 07:29:48 51°18.836 2°54.751 14.8 281 14.7 102010 36
2009-09-17 07:29:53 51°18.841 2°54.77 16.5 334 14.7 102010 36
2009-09-17 07:29:59 51°18.846 2°54.793 16.4 283 14.7 102010 36
2009-09-17 07:30:04 51°18.85 2°54.812 14.8 333 14.7 102020 36
2009-09-17 07:30:09 51°18.854 2°54.831 15.2 286 14.7 102020 36
2009-09-17 07:30:13 51°18.858 2°54.846 16.3 333 14.7 102000 36
2009-09-17 07:30:19 51°18.863 2°54.869 14.9 281 14.7 102000 36
2009-09-17 07:30:24 51°18.868 2°54.888 16.8 333 14.7 102010 36
2009-09-17 07:30:29 51°18.872 2°54.907 16.4 284 14.7 102010 36
2009-09-17 07:30:33 51°18.876 2°54.922 14 334 14.7 101990 37
2009-09-17 07:30:38 51°18.88 2°54.942 15.8 282 14.7 101990 37
2009-09-17 07:30:44 51°18.886 2°54.964 17.5 334 14.7 101990 36
2009-09-17 07:30:49 51°18.889 2°54.983 16.5 281 14.7 101990 36
2009-09-17 07:30:53 51°18.894 2°54.998 17.4 334 14.7 102000 36
2009-09-17 07:30:58 51°18.898 2°55.017 15.7 277 14.7 102000 36
2009-09-17 07:31:04 51°18.903 2°55.039 16.7 332 14.7 102000 36
2009-09-17 07:31:09 51°18.907 2°55.058 16.4 -999 14.6 101980 36
2009-09-17 07:31:13 51°18.911 2°55.073 16.7 332 14.6 101990 36
2009-09-17 07:31:18 51°18.915 2°55.093 16 283 14.6 101990 36
2009-09-17 07:31:24 51°18.921 2°55.115 16.1 332 14.6 101990 36
2009-09-17 07:31:29 51°18.925 2°55.134 17.9 279 14.6 102000 36
2009-09-17 07:31:33 51°18.929 2°55.15 17.8 333 14.7 102000 36
2009-09-17 07:31:38 51°18.933 2°55.169 15.1 285 14.7 102000 36
2009-09-17 07:31:44 51°18.939 2°55.191 15.5 333 14.7 102000 36
2009-09-17 07:31:49 51°18.943 2°55.211 16.4 281 14.7 102010 34
2009-09-17 07:31:53 51°18.947 2°55.226 14.4 331 14.7 102000 36
2009-09-17 07:31:58 51°18.952 2°55.245 15.9 282 14.7 102000 36
2009-09-17 07:32:04 51°18.957 2°55.268 13.8 329 14.6 102000 35
2009-09-17 07:32:09 51°18.962 2°55.287 17.1 331 14.6 102000 35
2009-09-17 07:32:13 51°18.965 2°55.302 17.7 331 14.6 102000 35
2009-09-17 07:32:19 51°18.971 2°55.325 13.2 278 14.6 102000 36
2009-09-17 07:32:24 51°18.975 2°55.344 14.1 330 14.6 102000 36
2009-09-17 07:32:29 51°18.98 2°55.363 14.8 282 14.6 102000 36
2009-09-17 07:32:34 51°18.985 2°55.381 15.2 331 14.6 102000 36
2009-09-17 07:32:38 51°18.988 2°55.396 14.2 281 14.7 101990 36
2009-09-17 07:32:44 51°18.994 2°55.418 14.7 335 14.7 102010 36
2009-09-17 07:32:49 51°18.998 2°55.437 15.1 285 14.7 102010 36
2009-09-17 07:32:54 51°19.002 2°55.456 15.5 334 14.7 102010 36
2009-09-17 07:32:58 51°19.006 2°55.47 14.7 281 14.7 102000 37
2009-09-17 07:33:04 51°19.011 2°55.493 15 332 14.7 102000 37
2009-09-17 07:33:09 51°19.016 2°55.512 13.9 -999 14.7 101980 36
2009-09-17 07:33:13 51°19.02 2°55.527 13.3 331 14.7 102010 36
2009-09-17 07:33:18 51°19.025 2°55.545 15.3 282 14.7 102010 36
2009-09-17 07:33:24 51°19.03 2°55.568 14.8 334 14.7 102010 36
2009-09-17 07:33:29 51°19.035 2°55.586 16.1 280 14.7 101990 36
2009-09-17 07:33:33 51°19.039 2°55.601 15.8 332 14.8 102010 37
2009-09-17 07:33:39 51°19.044 2°55.624 15.5 281 14.8 102010 37
2009-09-17 07:33:44 51°19.049 2°55.643 15.6 333 14.8 102010 37
2009-09-17 07:33:49 51°19.054 2°55.662 15.6 284 14.8 101990 37
2009-09-17 07:33:53 51°19.058 2°55.677 14.3 335 14.8 102000 37
2009-09-17 07:33:59 51°19.064 2°55.7 15.3 279 14.8 102000 37
2009-09-17 07:34:04 51°19.068 2°55.719 15.9 331 14.8 102000 37
2009-09-17 07:34:09 51°19.073 2°55.738 16 284 14.8 102000 36
2009-09-17 07:34:13 51°19.077 2°55.754 14.4 332 14.8 102000 37
2009-09-17 07:34:19 51°19.083 2°55.776 16.7 281 14.8 102000 37
2009-09-17 07:34:24 51°19.088 2°55.796 17.3 331 14.8 102010 35
2009-09-17 07:34:29 51°19.093 2°55.815 16.2 283 14.8 102010 35
2009-09-17 07:34:33 51°19.096 2°55.83 15.4 329 14.8 102010 35
2009-09-17 07:34:39 51°19.102 2°55.853 16.7 281 14.7 102010 36
2009-09-17 07:34:44 51°19.106 2°55.872 17 331 14.7 102010 36
2009-09-17 07:34:49 51°19.11 2°55.891 16.4 282 14.7 102010 36
2009-09-17 07:34:53 51°19.114 2°55.906 14.5 331 14.7 102010 36
2009-09-17 07:34:59 51°19.119 2°55.929 16.2 279 14.7 102010 36
2009-09-17 07:35:04 51°19.125 2°55.948 16.3 331 14.7 102010 35
2009-09-17 07:35:09 51°19.129 2°55.966 14.7 279 14.7 102010 35
2009-09-17 07:35:14 51°19.134 2°55.985 14.4 333 14.7 102010 35
2009-09-17 07:35:19 51°19.139 2°56.004 14.8 281 14.7 101990 36
2009-09-17 07:35:24 51°19.144 2°56.022 15.9 332 14.7 102000 36
2009-09-17 07:35:29 51°19.148 2°56.042 14.7 285 14.7 102000 36
2009-09-17 07:35:34 51°19.154 2°56.061 15.8 333 14.7 102000 36
2009-09-17 07:35:39 51°19.158 2°56.08 15.6 281 14.8 102010 37
2009-09-17 07:35:44 51°19.164 2°56.098 15.5 334 14.8 102020 37
2009-09-17 07:35:49 51°19.169 2°56.117 14.3 281 14.8 102020 37
2009-09-17 07:35:54 51°19.174 2°56.137 13 335 14.8 102020 37
2009-09-17 07:35:59 51°19.179 2°56.155 16.8 283 14.8 102000 37
2009-09-17 07:36:04 51°19.184 2°56.174 16 334 14.8 102010 37
2009-09-17 07:36:09 51°19.189 2°56.193 15.3 333 14.8 102010 37
2009-09-17 07:36:14 51°19.194 2°56.212 15.7 335 14.8 102010 36
2009-09-17 07:36:19 51°19.199 2°56.231 16.8 280 14.8 102010 36
2009-09-17 07:36:24 51°19.205 2°56.25 16.4 334 14.8 102010 37
2009-09-17 07:36:28 51°19.209 2°56.265 15.9 279 14.8 102010 37
2009-09-17 07:36:34 51°19.214 2°56.288 16.1 335 14.8 102010 37
2009-09-17 07:36:39 51°19.22 2°56.306 15.7 281 14.8 102010 37
2009-09-17 07:36:44 51°19.224 2°56.325 15.3 335 14.8 102000 36
2009-09-17 07:36:49 51°19.23 2°56.344 16.5 279 14.8 102000 36
2009-09-17 07:36:53 51°19.233 2°56.36 16.6 332 14.8 101990 36
2009-09-17 07:36:59 51°19.239 2°56.383 16.3 283 14.8 101990 36
2009-09-17 07:37:04 51°19.244 2°56.401 19.1 334 14.8 102010 35
2009-09-17 07:37:09 51°19.249 2°56.421 17.2 -999 14.8 102010 35
2009-09-17 07:37:13 51°19.253 2°56.436 15 333 14.8 102000 36
2009-09-17 07:37:18 51°19.257 2°56.455 15.8 282 14.8 102000 36
2009-09-17 07:37:24 51°19.263 2°56.477 15.6 333 14.8 102000 36
2009-09-17 07:37:29 51°19.268 2°56.496 15.2 281 14.8 102000 36
2009-09-17 07:37:33 51°19.272 2°56.512 16.3 334 14.7 102000 35
2009-09-17 07:37:38 51°19.277 2°56.531 16.2 282 14.7 102000 35
2009-09-17 07:37:44 51°19.283 2°56.553 16.1 331 14.7 102000 35
2009-09-17 07:37:49 51°19.287 2°56.573 16 280 14.7 102000 35
2009-09-17 07:37:53 51°19.291 2°56.588 16.1 328 14.7 102000 36
2009-09-17 07:37:58 51°19.296 2°56.607 17.5 279 14.7 102000 36
2009-09-17 07:38:04 51°19.301 2°56.63 18.1 329 14.7 102000 36
2009-09-17 07:38:09 51°19.306 2°56.648 15.8 282 14.7 102000 36
2009-09-17 07:38:13 51°19.309 2°56.664 17.6 330 14.7 102020 36
2009-09-17 07:38:18 51°19.315 2°56.683 15.5 283 14.7 102020 36
2009-09-17 07:38:24 51°19.32 2°56.707 14.3 328 14.7 102010 36
2009-09-17 07:38:29 51°19.325 2°56.725 15.7 282 14.7 102010 36
2009-09-17 07:38:34 51°19.33 2°56.744 15.6 331 14.7 102010 36
2009-09-17 07:38:39 51°19.335 2°56.763 16.6 282 14.7 102010 36
2009-09-17 07:38:44 51°19.339 2°56.782 16.7 333 14.7 102020 36
2009-09-17 07:38:49 51°19.344 2°56.801 18.4 284 14.7 102020 36
2009-09-17 07:38:54 51°19.348 2°56.82 16 333 14.7 102010 35
2009-09-17 07:38:59 51°19.354 2°56.837 16.8 285 14.7 102010 35
2009-09-17 07:39:04 51°19.358 2°56.857 13.3 331 14.7 102010 35
2009-09-17 07:39:09 51°19.363 2°56.875 14.8 332 14.7 102010 35
2009-09-17 07:39:13 51°19.367 2°56.891 14.6 330 14.7 102000 36
2009-09-17 07:39:19 51°19.373 2°56.913 14.2 279 14.7 102000 36
2009-09-17 07:39:24 51°19.378 2°56.931 14.9 332 14.7 102010 36
2009-09-17 07:39:29 51°19.382 2°56.951 15.8 281 14.7 102010 36
2009-09-17 07:39:33 51°19.387 2°56.966 14.7 335 14.7 102020 35
2009-09-17 07:39:38 51°19.391 2°56.985 15 281 14.7 102020 35
2009-09-17 07:39:44 51°19.397 2°57.007 17.4 333 14.7 102000 34
2009-09-17 07:39:49 51°19.401 2°57.027 16.6 280 14.7 102000 34
2009-09-17 07:39:53 51°19.405 2°57.041 16 335 14.7 102010 35
2009-09-17 07:39:58 51°19.41 2°57.06 15 280 14.7 102010 35
2009-09-17 07:40:04 51°19.416 2°57.082 17.9 334 14.7 102000 36
2009-09-17 07:40:09 51°19.421 2°57.101 18.1 284 14.7 102000 36
2009-09-17 07:40:13 51°19.425 2°57.116 17.5 333 14.7 101990 35
2009-09-17 07:40:18 51°19.43 2°57.135 14.3 285 14.7 101990 35
2009-09-17 07:40:24 51°19.436 2°57.157 17.2 333 14.7 101990 35
2009-09-17 07:40:29 51°19.441 2°57.176 18 283 14.7 102000 36
2009-09-17 07:40:33 51°19.445 2°57.191 16.1 333 14.7 102000 35
2009-09-17 07:40:38 51°19.45 2°57.209 15.6 284 14.7 102000 35
2009-09-17 07:40:44 51°19.456 2°57.232 16.6 335 14.7 102000 35
2009-09-17 07:40:49 51°19.461 2°57.25 16.4 279 14.7 102000 36
2009-09-17 07:40:53 51°19.465 2°57.265 18.2 333 14.7 102010 36
2009-09-17 07:40:58 51°19.47 2°57.284 16.7 281 14.7 102010 36
2009-09-17 07:41:04 51°19.476 2°57.306 17.8 335 14.7 102010 36
2009-09-17 07:41:09 51°19.481 2°57.325 16.8 336 14.7 102010 36
2009-09-17 07:41:13 51°19.485 2°57.34 14.5 334 14.7 102010 36
2009-09-17 07:41:19 51°19.491 2°57.363 16 281 14.7 102000 36
2009-09-17 07:41:24 51°19.496 2°57.381 16.5 334 14.7 102000 36
2009-09-17 07:41:29 51°19.5 2°57.4 16.2 279 14.7 102000 36
2009-09-17 07:41:34 51°19.506 2°57.419 15.1 332 14.7 102000 36
2009-09-17 07:41:39 51°19.51 2°57.438 15.1 286 14.7 102000 36
2009-09-17 07:41:44 51°19.516 2°57.456 16.8 334 14.7 101990 36
2009-09-17 07:41:49 51°19.521 2°57.475 14.6 283 14.7 101990 36
2009-09-17 07:41:54 51°19.526 2°57.494 16.9 333 14.7 101990 36
2009-09-17 07:41:58 51°19.53 2°57.509 14.9 285 14.8 102000 36
2009-09-17 07:42:04 51°19.536 2°57.532 14.2 335 14.7 102000 36
2009-09-17 07:42:09 51°19.54 2°57.551 17.4 280 14.7 102000 36
2009-09-17 07:42:14 51°19.545 2°57.57 16.1 331 14.7 102000 36
2009-09-17 07:42:19 51°19.549 2°57.589 15 284 14.8 102000 36
2009-09-17 07:42:24 51°19.554 2°57.607 16.4 337 14.7 101990 35
2009-09-17 07:42:29 51°19.559 2°57.626 16.2 280 14.7 101990 35
2009-09-17 07:42:34 51°19.564 2°57.645 16.3 333 14.7 101990 35
2009-09-17 07:42:39 51°19.569 2°57.664 13.5 283 14.7 102000 36
2009-09-17 07:42:44 51°19.574 2°57.683 13.8 334 14.7 102000 36
2009-09-17 07:42:48 51°19.578 2°57.698 14.4 278 14.7 102000 36
2009-09-17 07:42:53 51°19.583 2°57.716 15.4 332 14.8 102010 36
2009-09-17 07:42:59 51°19.588 2°57.74 16.2 282 14.8 102010 36
2009-09-17 07:43:04 51°19.594 2°57.757 16.6 336 14.8 102000 37
2009-09-17 07:43:09 51°19.598 2°57.777 16.5 -999 14.8 102000 37
2009-09-17 07:43:13 51°19.603 2°57.791 14.5 332 14.8 102010 37
2009-09-17 07:43:19 51°19.608 2°57.814 14.9 282 14.8 102010 37
2009-09-17 07:43:24 51°19.613 2°57.833 14.7 334 14.8 101990 36
2009-09-17 07:43:29 51°19.618 2°57.851 15.5 282 14.8 101990 36
2009-09-17 07:43:33 51°19.622 2°57.866 16.3 333 14.8 101990 36
2009-09-17 07:43:39 51°19.628 2°57.889 14.1 284 14.8 102010 36
2009-09-17 07:43:44 51°19.633 2°57.908 14.3 333 14.8 102010 36
2009-09-17 07:43:49 51°19.638 2°57.927 13.2 281 14.8 102010 36
2009-09-17 07:43:53 51°19.642 2°57.942 12.1 331 14.7 102000 36
2009-09-17 07:43:58 51°19.647 2°57.961 15.2 285 14.7 102000 36
2009-09-17 07:44:04 51°19.652 2°57.984 13.6 332 14.7 102010 36
2009-09-17 07:44:09 51°19.657 2°58.003 15.7 279 14.7 102010 36
2009-09-17 07:44:13 51°19.659 2°58.019 17 331 14.8 102000 36
2009-09-17 07:44:18 51°19.665 2°58.038 13.4 286 14.8 102000 36
2009-09-17 07:44:24 51°19.67 2°58.061 13.5 329 14.8 102020 37
2009-09-17 07:44:29 51°19.674 2°58.081 17.6 279 14.8 102020 37
2009-09-17 07:44:34 51°19.679 2°58.1 14.7 335 14.8 102020 37
2009-09-17 07:44:39 51°19.683 2°58.119 17.1 280 14.8 102000 36
2009-09-17 07:44:44 51°19.687 2°58.139 17.7 331 14.8 102000 36
2009-09-17 07:44:49 51°19.692 2°58.159 16 280 14.8 102000 36
2009-09-17 07:44:54 51°19.696 2°58.178 17.5 331 14.8 102000 36
2009-09-17 07:44:59 51°19.701 2°58.197 16 284 14.8 102010 37
2009-09-17 07:45:04 51°19.705 2°58.218 16 331 14.8 102010 35
2009-09-17 07:45:09 51°19.71 2°58.237 17.1 -999 14.8 102010 35
2009-09-17 07:45:14 51°19.714 2°58.257 17.7 331 14.8 102010 36
2009-09-17 07:45:19 51°19.718 2°58.276 15.6 283 14.8 102010 36
2009-09-17 07:45:24 51°19.722 2°58.296 15.6 330 14.7 102010 36
2009-09-17 07:45:28 51°19.726 2°58.312 15.5 281 14.7 102010 36
2009-09-17 07:45:34 51°19.731 2°58.336 15.6 332 14.7 102000 35
2009-09-17 07:45:39 51°19.735 2°58.355 17.4 282 14.7 102000 35
2009-09-17 07:45:44 51°19.739 2°58.374 14.5 334 14.7 102010 36
2009-09-17 07:45:49 51°19.743 2°58.394 15.2 278 14.7 102010 36
2009-09-17 07:45:53 51°19.747 2°58.409 13.7 333 14.7 102010 35
2009-09-17 07:45:59 51°19.752 2°58.433 17.3 282 14.7 102010 35
2009-09-17 07:46:04 51°19.757 2°58.452 16.6 336 14.7 102000 36
2009-09-17 07:46:09 51°19.76 2°58.472 15.2 283 14.7 102000 36
2009-09-17 07:46:13 51°19.764 2°58.488 15.6 333 14.7 102010 36
2009-09-17 07:46:18 51°19.769 2°58.507 14 281 14.7 102010 36
2009-09-17 07:46:24 51°19.773 2°58.531 17.4 335 14.7 102010 36
2009-09-17 07:46:29 51°19.778 2°58.55 15.4 282 14.7 102010 36
2009-09-17 07:46:33 51°19.78 2°58.567 15.2 334 14.7 102010 37
2009-09-17 07:46:38 51°19.786 2°58.586 14.8 282 14.7 102010 37
2009-09-17 07:46:44 51°19.79 2°58.61 15.5 328 14.8 102010 37
2009-09-17 07:46:49 51°19.794 2°58.629 13.5 281 14.8 102010 37
2009-09-17 07:46:53 51°19.798 2°58.645 15.2 331 14.7 102020 37
2009-09-17 07:46:58 51°19.802 2°58.664 16 284 14.7 102020 37
2009-09-17 07:47:04 51°19.807 2°58.688 15.2 333 14.7 102020 37
2009-09-17 07:47:09 51°19.811 2°58.708 13.6 -999 14.7 102030 36
2009-09-17 07:47:13 51°19.815 2°58.724 15 333 14.8 102020 37
2009-09-17 07:47:18 51°19.819 2°58.744 14.9 284 14.8 102020 37
2009-09-17 07:47:24 51°19.824 2°58.767 17.3 333 14.8 102020 37
2009-09-17 07:47:29 51°19.829 2°58.787 15.1 285 14.8 102010 36
2009-09-17 07:47:33 51°19.831 2°58.803 14.3 333 14.7 102020 36
2009-09-17 07:47:38 51°19.837 2°58.822 13.6 285 14.7 102020 36
2009-09-17 07:47:44 51°19.841 2°58.846 16.2 335 14.7 102020 35
2009-09-17 07:47:49 51°19.847 2°58.865 16.4 282 14.7 102020 35
2009-09-17 07:47:54 51°19.85 2°58.886 15.1 333 14.8 102020 36
2009-09-17 07:47:59 51°19.856 2°58.905 16.9 280 14.8 102020 36
2009-09-17 07:48:04 51°19.861 2°58.924 14.4 334 14.8 102030 37
2009-09-17 07:48:09 51°19.865 2°58.944 17.9 333 14.8 102030 37
2009-09-17 07:48:13 51°19.868 2°58.959 17.7 331 14.8 102030 37
2009-09-17 07:48:19 51°19.875 2°58.982 16.3 286 14.8 102010 36
2009-09-17 07:48:24 51°19.879 2°59.001 14.6 333 14.7 102000 36
2009-09-17 07:48:29 51°19.885 2°59.02 14.7 278 14.7 102000 36
2009-09-17 07:48:34 51°19.889 2°59.04 15.5 333 14.7 102000 36
2009-09-17 07:48:38 51°19.893 2°59.055 16.1 279 14.7 102000 36
2009-09-17 07:48:44 51°19.899 2°59.079 14.1 333 14.7 102020 36
2009-09-17 07:48:49 51°19.904 2°59.097 14.7 284 14.7 102020 36
2009-09-17 07:48:53 51°19.908 2°59.113 15.4 335 14.7 102020 36
2009-09-17 07:48:58 51°19.913 2°59.132 14.8 279 14.7 102020 36
2009-09-17 07:49:04 51°19.919 2°59.156 12.6 335 14.8 102020 37
2009-09-17 07:49:09 51°19.923 2°59.175 13.9 -999 14.8 102020 37
2009-09-17 07:49:13 51°19.929 2°59.189 13 336 14.8 102010 37
2009-09-17 07:49:18 51°19.932 2°59.209 14 283 14.8 102010 37
2009-09-17 07:49:24 51°19.939 2°59.232 15.9 334 14.8 102010 37
2009-09-17 07:49:29 51°19.944 2°59.252 15.8 280 14.8 102020 37
2009-09-17 07:49:33 51°19.948 2°59.266 14.1 335 14.8 102020 37
2009-09-17 07:49:39 51°19.954 2°59.29 14.2 286 14.8 102020 37
2009-09-17 07:49:44 51°19.959 2°59.309 14.2 334 14.8 102020 37
2009-09-17 07:49:49 51°19.964 2°59.328 15.9 282 14.9 102030 37
2009-09-17 07:49:53 51°19.968 2°59.344 15.3 334 14.9 102020 37
2009-09-17 07:49:59 51°19.974 2°59.367 14.5 285 14.9 102020 37
2009-09-17 07:50:04 51°19.979 2°59.386 14.8 334 14.9 102020 37
2009-09-17 07:50:09 51°19.984 2°59.405 12.9 279 14.9 102020 38
2009-09-17 07:50:13 51°19.987 2°59.422 13.4 334 14.9 102020 37
2009-09-17 07:50:19 51°19.994 2°59.444 14.3 279 14.9 102020 37
2009-09-17 07:50:24 51°19.998 2°59.464 15.9 335 14.8 102020 35
2009-09-17 07:50:29 51°20.004 2°59.483 16.5 284 14.8 102020 35
2009-09-17 07:50:33 51°20.007 2°59.498 14.2 332 14.8 102020 35
2009-09-17 07:50:39 51°20.013 2°59.521 13.7 278 14.9 102030 37
2009-09-17 07:50:44 51°20.019 2°59.54 13.9 331 14.9 102030 37
2009-09-17 07:50:49 51°20.023 2°59.56 14.8 284 14.9 102020 37
2009-09-17 07:50:54 51°20.028 2°59.579 14.4 334 14.9 102020 37
2009-09-17 07:50:59 51°20.033 2°59.598 15.9 278 14.9 102020 37
2009-09-17 07:51:04 51°20.038 2°59.618 16.1 334 14.9 102020 37
2009-09-17 07:51:09 51°20.043 2°59.637 15.4 330 14.9 102010 37
2009-09-17 07:51:14 51°20.047 2°59.657 17.4 333 14.9 102010 37
2009-09-17 07:51:19 51°20.052 2°59.676 14.6 284 14.9 102010 36
2009-09-17 07:51:24 51°20.056 2°59.696 16.3 334 14.9 102010 36
2009-09-17 07:51:29 51°20.062 2°59.714 15.2 285 14.8 102000 36
2009-09-17 07:51:34 51°20.066 2°59.734 17.6 331 14.8 102000 36
2009-09-17 07:51:39 51°20.072 2°59.753 16.1 282 14.8 102010 36
2009-09-17 07:51:44 51°20.077 2°59.772 13.8 331 14.8 102010 36
2009-09-17 07:51:49 51°20.082 2°59.791 14.4 286 14.8 102020 37
2009-09-17 07:51:54 51°20.087 2°59.81 14 334 14.8 102020 37
2009-09-17 07:51:59 51°20.092 2°59.829 16.9 282 14.8 102000 36
2009-09-17 07:52:04 51°20.097 2°59.849 17 336 14.8 102000 36
2009-09-17 07:52:09 51°20.101 2°59.868 17.1 334 14.8 101990 36
2009-09-17 07:52:14 51°20.106 2°59.888 16.7 336 14.8 101990 36
2009-09-17 07:52:19 51°20.111 2°59.906 15 278 14.8 101990 37
2009-09-17 07:52:24 51°20.115 2°59.926 14.4 333 14.8 101990 37
2009-09-17 07:52:29 51°20.121 2°59.944 14.8 286 14.8 101990 36
2009-09-17 07:52:33 51°20.124 2°59.96 17.1 334 14.8 101990 36
2009-09-17 07:52:39 51°20.131 2°59.982 17.2 283 14.8 101980 36
2009-09-17 07:52:44 51°20.136 3°0.002 16.5 335 14.8 101980 36
2009-09-17 07:52:49 51°20.141 3°0.021 15.6 284 14.7 101990 35
2009-09-17 07:52:53 51°20.145 3°0.036 16.2 333 14.7 101990 35
2009-09-17 07:52:59 51°20.151 3°0.059 16.3 281 14.7 101980 36
2009-09-17 07:53:04 51°20.155 3°0.079 16.5 333 14.7 101980 36
2009-09-17 07:53:09 51°20.161 3°0.098 14.2 333 14.7 102000 35
2009-09-17 07:53:13 51°20.165 3°0.113 16.2 336 14.7 102000 35
2009-09-17 07:53:18 51°20.17 3°0.132 14.9 279 14.7 102000 37
2009-09-17 07:53:24 51°20.176 3°0.155 16.7 334 14.7 102000 37
2009-09-17 07:53:29 51°20.181 3°0.174 15.7 284 14.7 102000 36
2009-09-17 07:53:33 51°20.186 3°0.189 15.2 333 14.7 102000 36
2009-09-17 07:53:38 51°20.19 3°0.209 15.7 280 14.7 101990 36
2009-09-17 07:53:44 51°20.197 3°0.232 14.8 337 14.7 101990 36
2009-09-17 07:53:49 51°20.201 3°0.251 16.3 283 14.7 102010 36
2009-09-17 07:53:53 51°20.205 3°0.267 16.2 337 14.7 102010 36
2009-09-17 07:53:58 51°20.21 3°0.286 18.1 279 14.7 101980 36
2009-09-17 07:54:04 51°20.215 3°0.309 17.1 333 14.7 101980 36
2009-09-17 07:54:09 51°20.22 3°0.327 14.5 284 14.7 101990 36
2009-09-17 07:54:14 51°20.225 3°0.347 17.3 335 14.7 101990 36
2009-09-17 07:54:19 51°20.229 3°0.365 17.9 279 14.7 101990 36
2009-09-17 07:54:24 51°20.234 3°0.384 16.2 334 14.7 101990 36
2009-09-17 07:54:29 51°20.239 3°0.404 14.6 277 14.7 101970 35
2009-09-17 07:54:34 51°20.243 3°0.423 16.9 333 14.7 101970 35
2009-09-17 07:54:39 51°20.248 3°0.442 14.5 284 14.7 101990 36
2009-09-17 07:54:44 51°20.253 3°0.462 18.1 334 14.7 101990 36
2009-09-17 07:54:49 51°20.259 3°0.481 15.1 284 14.7 102000 36
2009-09-17 07:54:54 51°20.263 3°0.501 17.5 333 14.7 102000 36
2009-09-17 07:54:59 51°20.269 3°0.519 17.6 281 14.7 102000 36
2009-09-17 07:55:04 51°20.273 3°0.54 17.2 334 14.7 102000 36
2009-09-17 07:55:09 51°20.279 3°0.558 17.4 334 14.7 101990 36
2009-09-17 07:55:13 51°20.283 3°0.574 17.4 335 14.7 101990 36
2009-09-17 07:55:19 51°20.289 3°0.597 16.9 278 14.7 101990 35
2009-09-17 07:55:24 51°20.294 3°0.617 14.8 333 14.7 101990 35
2009-09-17 07:55:29 51°20.298 3°0.637 13.2 284 14.7 101990 36
2009-09-17 07:55:33 51°20.302 3°0.652 14.8 332 14.7 101990 36
2009-09-17 07:55:38 51°20.307 3°0.672 13.8 280 14.7 101980 36
2009-09-17 07:55:44 51°20.314 3°0.694 15.4 335 14.7 101980 36
2009-09-17 07:55:49 51°20.318 3°0.714 17.3 280 14.7 102000 34
2009-09-17 07:55:54 51°20.323 3°0.734 15.2 335 14.7 102000 34
2009-09-17 07:55:58 51°20.327 3°0.749 15.5 280 14.7 101980 36
2009-09-17 07:56:04 51°20.332 3°0.773 15.6 335 14.7 101980 36
2009-09-17 07:56:09 51°20.338 3°0.791 16.4 333 14.7 101980 36
2009-09-17 07:56:14 51°20.343 3°0.811 17 335 14.7 101980 36
2009-09-17 07:56:18 51°20.347 3°0.826 15.4 282 14.7 102000 36
2009-09-17 07:56:24 51°20.352 3°0.85 13.9 334 14.7 102000 36
2009-09-17 07:56:29 51°20.358 3°0.868 17.3 281 14.7 101990 36
2009-09-17 07:56:34 51°20.363 3°0.888 17.4 334 14.7 101990 36
2009-09-17 07:56:38 51°20.367 3°0.903 17 283 14.7 101990 36
2009-09-17 07:56:44 51°20.374 3°0.926 15.8 332 14.7 101990 36
2009-09-17 07:56:49 51°20.378 3°0.946 15.8 285 14.7 101990 36
2009-09-17 07:56:54 51°20.383 3°0.966 17.4 330 14.7 101990 36
2009-09-17 07:56:58 51°20.387 3°0.98 16.2 281 14.7 101980 36
2009-09-17 07:57:04 51°20.392 3°1.004 15.6 333 14.7 101980 36
2009-09-17 07:57:09 51°20.397 3°1.022 14.1 331 14.7 101980 35
2009-09-17 07:57:14 51°20.402 3°1.041 16.9 334 14.7 101980 35
2009-09-17 07:57:19 51°20.407 3°1.06 18.1 284 14.7 101960 36
2009-09-17 07:57:24 51°20.412 3°1.079 17.6 332 14.7 101960 36
2009-09-17 07:57:29 51°20.418 3°1.098 16.2 281 14.7 101990 36
2009-09-17 07:57:34 51°20.422 3°1.118 14.3 334 14.7 101990 36
2009-09-17 07:57:39 51°20.428 3°1.137 15.3 280 14.7 102010 35
2009-09-17 07:57:44 51°20.432 3°1.157 16.3 331 14.7 102010 35
2009-09-17 07:57:49 51°20.436 3°1.176 17.8 283 14.7 102010 36
2009-09-17 07:57:54 51°20.441 3°1.196 16.5 333 14.7 102010 36
2009-09-17 07:57:59 51°20.447 3°1.215 17.3 282 14.7 102020 36
2009-09-17 07:58:04 51°20.451 3°1.234 16 332 14.8 102010 36
2009-09-17 07:58:09 51°20.456 3°1.254 15.7 283 14.8 102010 36
2009-09-17 07:58:14 51°20.461 3°1.273 17.5 332 14.8 102010 36
2009-09-17 07:58:19 51°20.466 3°1.293 15.3 282 14.7 102000 35
2009-09-17 07:58:24 51°20.47 3°1.313 15.1 333 14.7 102000 35
2009-09-17 07:58:29 51°20.475 3°1.332 14.2 280 14.7 102010 35
2009-09-17 07:58:34 51°20.48 3°1.35 16.7 334 14.7 102010 35
2009-09-17 07:58:39 51°20.485 3°1.37 16.6 282 14.7 102000 36
2009-09-17 07:58:44 51°20.49 3°1.388 15.3 337 14.7 102000 36
2009-09-17 07:58:49 51°20.495 3°1.407 15.1 284 14.7 102020 35
2009-09-17 07:58:54 51°20.5 3°1.427 15.6 332 14.7 102020 35
2009-09-17 07:58:59 51°20.505 3°1.445 16.3 286 14.7 102000 36
2009-09-17 07:59:04 51°20.51 3°1.464 17.9 334 14.7 102000 36
2009-09-17 07:59:09 51°20.515 3°1.483 14.9 334 14.8 101980 36
2009-09-17 07:59:13 51°20.519 3°1.498 15.8 335 14.8 101980 36
2009-09-17 07:59:19 51°20.525 3°1.521 16.8 284 14.7 102010 36
2009-09-17 07:59:24 51°20.53 3°1.54 16.7 336 14.7 102010 36
2009-09-17 07:59:29 51°20.535 3°1.559 15.1 281 14.8 101990 36
2009-09-17 07:59:33 51°20.538 3°1.574 17.2 334 14.8 101990 36
2009-09-17 07:59:39 51°20.543 3°1.598 16.4 281 14.8 101980 36
2009-09-17 07:59:44 51°20.547 3°1.618 16 332 14.8 101980 36
2009-09-17 07:59:49 51°20.551 3°1.637 15.1 280 14.7 102010 35
2009-09-17 07:59:53 51°20.554 3°1.653 16.7 334 14.7 102010 35
2009-09-17 07:59:58 51°20.557 3°1.673 15.1 278 14.7 102010 35
2009-09-17 08:00:04 51°20.56 3°1.698 15.6 333 14.7 102010 35
2009-09-17 08:00:09 51°20.564 3°1.717 15.7 332 14.7 102010 36
2009-09-17 08:00:14 51°20.566 3°1.737 14.6 330 14.7 102010 36
2009-09-17 08:00:19 51°20.569 3°1.758 14.9 280 14.7 102010 36
2009-09-17 08:00:24 51°20.572 3°1.778 16.2 333 14.7 102010 36
2009-09-17 08:00:29 51°20.575 3°1.799 16.3 285 14.7 102010 36
2009-09-17 08:00:34 51°20.578 3°1.819 14.6 331 14.7 102010 36
2009-09-17 08:00:39 51°20.581 3°1.84 13.7 284 14.7 102000 35
2009-09-17 08:00:44 51°20.584 3°1.86 15.5 330 14.7 102000 35
2009-09-17 08:00:49 51°20.585 3°1.882 14.6 282 14.7 101990 36
2009-09-17 08:00:54 51°20.59 3°1.902 16.6 331 14.7 101990 36
2009-09-17 08:00:59 51°20.591 3°1.923 16.7 280 14.7 102000 36
2009-09-17 08:01:04 51°20.595 3°1.944 16.2 331 14.7 102000 36
2009-09-17 08:01:09 51°20.597 3°1.965 16.9 280 14.7 102010 35
2009-09-17 08:01:14 51°20.601 3°1.986 16.6 331 14.8 101990 36
2009-09-17 08:01:19 51°20.603 3°2.007 15.7 283 14.8 101990 36
2009-09-17 08:01:24 51°20.606 3°2.027 16.3 332 14.8 101990 36
2009-09-17 08:01:28 51°20.607 3°2.044 16.4 284 14.7 101980 36
2009-09-17 08:01:34 51°20.61 3°2.069 17.3 332 14.7 102000 36
2009-09-17 08:01:39 51°20.613 3°2.09 13.2 285 14.7 102000 36
2009-09-17 08:01:44 51°20.615 3°2.11 14.7 332 14.7 102000 36
2009-09-17 08:01:49 51°20.617 3°2.131 13.9 279 14.8 102000 36
2009-09-17 08:01:53 51°20.619 3°2.148 13.8 327 14.8 102000 36
2009-09-17 08:01:59 51°20.622 3°2.173 14.1 283 14.7 101970 35
2009-09-17 08:02:04 51°20.624 3°2.194 14 327 14.7 101970 35
2009-09-17 08:02:09 51°20.626 3°2.215 16.6 329 14.8 102010 36
2009-09-17 08:02:13 51°20.628 3°2.232 16.1 326 14.8 102010 36
2009-09-17 08:02:18 51°20.631 3°2.253 17.1 286 14.8 102010 36
2009-09-17 08:02:24 51°20.634 3°2.278 13.6 329 14.8 102010 36
2009-09-17 08:02:29 51°20.637 3°2.299 15.3 284 14.7 102000 36
2009-09-17 08:02:33 51°20.638 3°2.316 16.3 328 14.7 102000 36
2009-09-17 08:02:38 51°20.641 3°2.337 13.6 283 14.7 102000 36
2009-09-17 08:02:44 51°20.644 3°2.362 14.7 327 14.7 102000 36
2009-09-17 08:02:49 51°20.646 3°2.383 14.6 279 14.8 101990 37
2009-09-17 08:02:53 51°20.648 3°2.4 14.3 327 14.8 101990 37
2009-09-17 08:02:58 51°20.652 3°2.421 14.5 279 14.8 102000 36
2009-09-17 08:03:04 51°20.654 3°2.446 14.6 330 14.8 102000 36
2009-09-17 08:03:09 51°20.658 3°2.467 14.3 332 14.7 102020 36
2009-09-17 08:03:13 51°20.66 3°2.483 14.3 334 14.7 102020 36
2009-09-17 08:03:18 51°20.663 3°2.504 16.5 281 14.8 102010 37
2009-09-17 08:03:24 51°20.666 3°2.529 15.3 333 14.8 102010 37
2009-09-17 08:03:29 51°20.668 3°2.55 14.5 286 14.7 102020 36
2009-09-17 08:03:34 51°20.67 3°2.571 16.1 328 14.7 102020 36
2009-09-17 08:03:39 51°20.673 3°2.591 14.9 279 14.7 102000 36
2009-09-17 08:03:44 51°20.675 3°2.613 14.2 328 14.7 102000 36
2009-09-17 08:03:49 51°20.679 3°2.633 14.8 279 14.7 102000 35
2009-09-17 08:03:54 51°20.681 3°2.654 17.3 327 14.7 102000 35
2009-09-17 08:03:59 51°20.684 3°2.675 14.6 283 14.7 101990 36
2009-09-17 08:04:04 51°20.686 3°2.696 17.1 325 14.7 101990 36
2009-09-17 08:04:09 51°20.689 3°2.717 15 328 14.8 102010 37
2009-09-17 08:04:14 51°20.692 3°2.737 16.4 328 14.8 102010 37
2009-09-17 08:04:19 51°20.695 3°2.758 16.1 284 14.8 102010 36
2009-09-17 08:04:24 51°20.697 3°2.779 16.6 328 14.8 102010 36
2009-09-17 08:04:29 51°20.7 3°2.8 16.6 282 14.7 102000 35
2009-09-17 08:04:34 51°20.702 3°2.821 14 327 14.7 102000 35
2009-09-17 08:04:38 51°20.705 3°2.837 14.1 281 14.7 102000 36
2009-09-17 08:04:44 51°20.708 3°2.862 14 332 14.7 102000 36
2009-09-17 08:04:49 51°20.712 3°2.883 15.5 283 14.7 102020 36
2009-09-17 08:04:54 51°20.713 3°2.904 12.6 332 14.7 102020 36
2009-09-17 08:04:58 51°20.717 3°2.919 12.6 281 14.7 102010 36
2009-09-17 08:05:04 51°20.72 3°2.945 13.4 331 14.7 102010 36
2009-09-17 08:05:09 51°20.723 3°2.965 14.4 282 14.7 102000 36
2009-09-17 08:05:14 51°20.726 3°2.986 16.8 332 14.7 102000 36
2009-09-17 08:05:18 51°20.728 3°3.003 16.6 283 14.8 102000 37
2009-09-17 08:05:24 51°20.733 3°3.027 17 331 14.8 102000 37
2009-09-17 08:05:29 51°20.735 3°3.048 15.2 281 14.8 102010 37
2009-09-17 08:05:34 51°20.738 3°3.068 16.5 331 14.8 102010 37
2009-09-17 08:05:39 51°20.741 3°3.089 15.1 284 14.8 101970 36